MUOS-5

Last updated on Sun Apr 12 2026 00:02:54 GMT+0000 (Coordinated Universal Time)

1 41622U 16041A 26101.50032397 -.00000133 00000+0 00000+0 0 9992 2 41622 2.3499 300.4289 0194548 261.9422 72.5957 1.00272594 36416
UTC large
Height (km)
Speed (km/s)
/
Latitude / Longitude
Inclination (degrees)
Orbital Period (minutes)
Azimuth
Elevation
Range (km)
Doppler Factor

Next 0 passes for location: London (51.5072 / 0.1276)

Sorry there are no passes over London.
MUOS-5